Simultaneous Nadir Overpasses (SNOs) Predictions

Prediction of SNOs between GOES-15 and TERRA Satellite Orbit:

Table of predicted SNOs for the next 14.0 days since TLE Epoch: 5/24/2017
Index Date Time (GOES-15) GOES-15 Lat,Lon TERRA Lat,Lon Distance(km) Time Diff (sec)
1 05/24/2017 19:46:03 -0.11,-134.79 0.65,-138.48 419.04 80
2 05/26/2017 07:12:36 0.12,-134.66 1.06,-130.37 489.41 80
3 05/26/2017 19:33:51 -0.11,-134.70 0.07,-135.52 92.73 80
4 05/28/2017 19:19:00 -0.12,-134.61 -0.58,-132.56 232.84 80
5 05/29/2017 07:43:04 0.11,-134.52 -0.54,-137.75 366.96 80
6 05/31/2017 07:30:52 0.12,-134.42 0.04,-134.78 41.77 80
7 06/02/2017 07:16:01 0.13,-134.32 0.68,-131.83 283.29 80
8 06/02/2017 19:39:55 -0.12,-134.35 0.45,-136.98 298.76 80
9 06/04/2017 19:25:05 -0.12,-134.25 -0.19,-134.03 26.02 80
10 06/06/2017 19:12:53 -0.12,-134.14 -0.77,-131.06 350.07 80
11 06/07/2017 07:36:56 0.11,-134.05 -0.35,-136.25 250.19 80




NCC Satellite Simultaneous Nadir Overpasses (SNOs) Prediction Service
